QPF
0.00 0.00 0.00 0.00 0.00 0.00 0.00 0.00 0.00 0.00 0.01 0.02 0.03 0.05 0.07 0.08 0.07 0.05 0.05 0.10 0.16 0.16 0.13 0.08 0.07 0.05 0.06 0.09 0.16 0.17 0.10 0.08 0.08 0.06 0.03 0.03 0.03 0.04 0.05 0.04 0.05 0.10 0.09 0.05
0.00 0.00 0.00 0.00 0.00 0.00 0.00 0.00 0.01 0.00 0.01 0.01 0.02 0.04 0.10 0.10 0.13 0.09 0.06 0.07 0.10 0.10 0.10 0.07 0.07 0.05 0.04 0.04 0.06 0.11 0.08 0.04 0.04 0.04 0.03 0.02 0.02 0.03 0.04 0.05 0.04 0.03 0.04 0.04
0.00 0.00 0.00 0.00 0.00 0.00 0.00 0.00 0.00 0.00 0.01 0.01 0.03 0.11 0.18 0.21 0.16 0.13 0.10 0.11 0.15 0.11 0.10 0.09 0.06 0.05 0.04 0.03 0.03 0.03 0.03 0.02 0.02 0.02 0.02 0.02 0.02 0.03 0.05 0.04 0.04 0.03 0.03 0.02
0.00 0.00 0.00 0.00 0.00 0.00 0.00 0.00 0.00 0.00 0.01 0.02 0.03 0.09 0.20 0.23 0.19 0.15 0.13 0.14 0.21 0.14 0.09 0.06 0.04 0.04 0.04 0.03 0.03 0.03 0.03 0.02 0.01 0.01 0.01 0.02 0.03 0.04 0.05 0.04 0.04 0.03 0.03 0.03
0.00 0.00 0.00 0.00 0.00 0.00 0.00 0.00 0.00 0.00 0.00 0.01 0.02 0.05 0.12 0.16 0.16 0.16 0.16 0.14 0.14 0.11 0.07 0.05 0.04 0.03 0.02 0.02 0.03 0.03 0.02 0.01 0.01 0.00 0.01 0.01 0.02 0.03 0.03 0.04 0.04 0.03 0.03 0.03
0.00 0.00 0.00 0.00 0.00 0.00 0.00 0.00 0.00 0.00 0.01 0.02 0.02 0.03 0.09 0.13 0.12 0.17 0.19 0.14 0.11 0.08 0.05 0.04 0.03 0.02 0.02 0.02 0.02 0.02 0.02 0.01 0.01 0.01 0.01 0.01 0.02 0.02 0.03 0.04 0.03 0.02 0.02 0.02
0.00 0.00 0.00 0.00 0.00 0.00 0.00 0.00 0.01 0.01 0.02 0.02 0.02 0.02 0.07 0.12 0.14 0.19 0.22 0.19 0.13 0.10 0.07 0.03 0.02 0.01 0.01 0.01 0.01 0.01 0.02 0.01 0.02 0.02 0.02 0.02 0.02 0.02 0.03 0.03 0.02 0.02 0.01 0.01
0.00 0.00 0.00 0.00 0.00 0.00 0.00 0.00 0.01 0.02 0.04 0.05 0.05 0.08 0.14 0.17 0.17 0.23 0.22 0.18 0.17 0.14 0.09 0.04 0.02 0.01 0.01 0.01 0.02 0.02 0.02 0.03 0.03 0.03 0.03 0.02 0.02 0.03 0.04 0.03 0.03 0.02 0.02 0.02
0.01 0.01 0.00 0.00 0.00 0.00 0.00 0.01 0.01 0.01 0.02 0.04 0.08 0.15 0.20 0.22 0.21 0.25 0.21 0.15 0.13 0.12 0.09 0.05 0.03 0.01 0.01 0.01 0.02 0.02 0.03 0.03 0.04 0.03 0.03 0.03 0.03 0.03 0.05 0.04 0.02 0.02 0.02 0.02
0.01 0.01 0.01 0.00 0.00 0.00 0.00 0.00 0.01 0.01 0.03 0.07 0.09 0.15 0.18 0.23 0.24 0.16 0.12 0.09 0.07 0.06 0.04 0.03 0.02 0.01 0.01 0.01 0.02 0.02 0.02 0.03 0.05 0.04 0.03 0.02 0.02 0.02 0.02 0.02 0.02 0.02 0.02 0.01
0.00 0.00 0.01 0.01 0.01 0.01 0.01 0.01 0.01 0.02 0.03 0.05 0.10 0.14 0.13 0.21 0.22 0.18 0.12 0.10 0.08 0.05 0.02 0.01 0.01 0.01 0.01 0.01 0.01 0.02 0.02 0.02 0.03 0.03 0.03 0.02 0.02 0.01 0.01 0.01 0.01 0.02 0.02 0.01
0.01 0.00 0.01 0.02 0.02 0.01 0.01 0.02 0.03 0.04 0.05 0.06 0.08 0.11 0.11 0.11 0.16 0.25 0.20 0.12 0.11 0.06 0.02 0.02 0.01 0.01 0.01 0.00 0.01 0.01 0.01 0.02 0.02 0.02 0.02 0.02 0.01 0.01 0.01 0.00 0.01 0.01 0.01 0.02
0.01 0.01 0.01 0.03 0.03 0.02 0.01 0.02 0.02 0.02 0.03 0.04 0.06 0.09 0.12 0.13 0.16 0.23 0.19 0.12 0.10 0.05 0.02 0.02 0.01 0.01 0.00 0.00 0.00 0.00 0.00 0.01 0.01 0.01 0.01 0.01 0.01 0.01 0.01 0.01 0.01 0.01 0.02 0.02
0.00 0.00 0.02 0.04 0.04 0.02 0.01 0.01 0.02 0.02 0.02 0.03 0.05 0.08 0.11 0.13 0.16 0.18 0.15 0.09 0.06 0.05 0.03 0.02 0.01 0.00 0.00 0.00 0.00 0.00 0.00 0.01 0.01 0.01 0.01 0.01 0.01 0.01 0.01 0.01 0.01 0.01 0.02 0.02
0.00 0.00 0.01 0.02 0.02 0.01 0.01 0.02 0.01 0.01 0.01 0.03 0.06 0.07 0.08 0.10 0.12 0.11 0.10 0.07 0.07 0.05 0.03 0.02 0.01 0.01 0.00 0.00 0.00 0.00 0.00 0.01 0.01 0.01 0.01 0.01 0.01 0.02 0.02 0.02 0.02 0.02 0.02 0.02
0.01 0.01 0.01 0.01 0.02 0.02 0.03 0.03 0.02 0.02 0.03 0.04 0.06 0.07 0.08 0.09 0.07 0.07 0.09 0.06 0.06 0.07 0.05 0.02 0.02 0.01 0.01 0.00 0.01 0.01 0.01 0.01 0.00 0.00 0.01 0.01 0.01 0.01 0.02 0.02 0.02 0.02 0.02 0.02
0.01 0.01 0.01 0.01 0.02 0.03 0.07 0.08 0.06 0.04 0.05 0.06 0.07 0.07 0.06 0.06 0.06 0.06 0.06 0.05 0.05 0.05 0.04 0.03 0.03 0.02 0.01 0.01 0.00 0.00 0.01 0.01 0.00 0.00 0.01 0.01 0.01 0.01 0.01 0.02 0.02 0.02 0.02 0.02
0.01 0.01 0.01 0.02 0.04 0.08 0.10 0.09 0.07 0.07 0.06 0.05 0.05 0.05 0.04 0.04 0.05 0.04 0.03 0.04 0.04 0.04 0.05 0.06 0.05 0.03 0.02 0.01 0.01 0.01 0.00 0.00 0.00 0.00 0.01 0.01 0.01 0.01 0.01 0.02 0.04 0.03 0.03 0.02
0.00 0.00 0.01 0.03 0.06 0.10 0.11 0.09 0.05 0.06 0.07 0.05 0.04 0.04 0.04 0.05 0.05 0.07 0.06 0.06 0.06 0.05 0.05 0.05 0.05 0.03 0.02 0.02 0.01 0.01 0.01 0.01 0.01 0.01 0.01 0.01 0.01 0.01 0.01 0.02 0.04 0.05 0.04 0.04
0.01 0.02 0.02 0.03 0.07 0.13 0.14 0.08 0.05 0.06 0.08 0.06 0.04 0.03 0.03 0.05 0.07 0.08 0.10 0.10 0.06 0.04 0.04 0.05 0.04 0.03 0.03 0.02 0.01 0.01 0.01 0.01 0.01 0.01 0.01 0.01 0.01 0.01 0.01 0.01 0.02 0.03 0.04 0.03
0.03 0.03 0.04 0.04 0.08 0.13 0.07 0.04 0.03 0.06 0.07 0.04 0.04 0.03 0.02 0.03 0.04 0.05 0.05 0.07 0.06 0.04 0.03 0.03 0.03 0.03 0.03 0.02 0.01 0.01 0.01 0.01 0.01 0.01 0.01 0.01 0.01 0.01 0.01 0.01 0.01 0.01 0.02 0.02
0.02 0.03 0.04 0.06 0.09 0.10 0.04 0.03 0.03 0.04 0.03 0.02 0.02 0.02 0.02 0.01 0.02 0.02 0.02 0.03 0.03 0.02 0.02 0.02 0.02 0.02 0.02 0.02 0.01 0.01 0.01 0.00 0.00 0.00 0.01 0.01 0.01 0.01 0.01 0.01 0.01 0.01 0.01 0.01
0.02 0.02 0.03 0.05 0.06 0.04 0.02 0.03 0.03 0.02 0.01 0.01 0.01 0.02 0.01 0.01 0.01 0.01 0.01 0.01 0.01 0.01 0.01 0.01 0.01 0.01 0.01 0.01 0.01 0.01 0.01 0.00 0.01 0.01 0.01 0.01 0.01 0.01 0.01 0.01 0.01 0.01 0.01 0.01
0.02 0.02 0.03 0.04 0.05 0.04 0.03 0.02 0.01 0.01 0.01 0.01 0.00 0.00 0.00 0.01 0.01 0.01 0.01 0.01 0.01 0.01 0.00 0.01 0.01 0.01 0.01 0.01 0.01 0.01 0.01 0.01 0.01 0.01 0.01 0.01 0.01 0.00 0.00 0.00 0.00 0.00 0.00 0.00
0.02 0.01 0.02 0.03 0.04 0.03 0.03 0.01 0.01 0.01 0.01 0.00 0.00 0.00 0.00 0.01 0.01 0.01 0.01 0.01 0.01 0.01 0.01 0.01 0.01 0.01 0.01 0.01 0.01 0.01 0.00 0.00 0.00 0.00 0.00 0.01 0.00 0.00 0.00 0.00 0.00 0.00 0.00 0.00
0.01 0.02 0.02 0.02 0.02 0.02 0.02 0.02 0.01 0.01 0.01 0.00 0.00 0.00 0.00 0.01 0.01 0.01 0.01 0.01 0.01 0.01 0.01 0.01 0.01 0.01 0.00 0.00 0.00 0.00 0.00 0.00 0.00 0.00 0.00 0.00 0.00 0.00 0.00 0.00 0.00 0.00 0.00 0.00
MSLP
1013.19 1013.65 1013.80 1013.65 1013.29 1012.83 1012.44 1012.24 1012.33 1012.74 1013.43 1014.30 1015.21 1016.05 1016.69 1017.08 1017.20 1017.13 1016.94 1016.74 1016.63 1016.68 1016.89 1017.24 1017.68 1018.10 1018.43 1018.62 1018.64 1018.49 1018.21 1017.86 1017.49 1017.15 1016.86 1016.62 1016.42 1016.22 1016.02 1015.80 1015.57 1015.35 1015.18 1015.09
1013.28 1013.55 1013.52 1013.25 1012.83 1012.40 1012.11 1012.07 1012.36 1012.96 1013.81 1014.79 1015.76 1016.59 1017.19 1017.51 1017.59 1017.49 1017.33 1017.20 1017.19 1017.34 1017.67 1018.10 1018.56 1018.97 1019.25 1019.35 1019.27 1019.03 1018.68 1018.30 1017.94 1017.64 1017.40 1017.21 1017.04 1016.86 1016.62 1016.34 1016.01 1015.68 1015.39 1015.18
1013.26 1013.33 1013.15 1012.78 1012.35 1012.00 1011.86 1012.04 1012.55 1013.37 1014.38 1015.47 1016.48 1017.29 1017.83 1018.08 1018.09 1017.96 1017.80 1017.72 1017.79 1018.04 1018.45 1018.94 1019.43 1019.82 1020.04 1020.07 1019.91 1019.60 1019.22 1018.83 1018.50 1018.25 1018.07 1017.94 1017.81 1017.64 1017.38 1017.03 1016.62 1016.19 1015.79 1015.48
1013.23 1013.14 1012.83 1012.42 1012.03 1011.81 1011.87 1012.27 1013.03 1014.05 1015.21 1016.38 1017.39 1018.15 1018.60 1018.74 1018.66 1018.46 1018.28 1018.22 1018.33 1018.64 1019.11 1019.64 1020.15 1020.53 1020.73 1020.71 1020.51 1020.18 1019.79 1019.42 1019.13 1018.93 1018.82 1018.74 1018.64 1018.47 1018.19 1017.80 1017.33 1016.81 1016.32 1015.91
1013.30 1013.07 1012.70 1012.29 1011.99 1011.93 1012.20 1012.83 1013.81 1015.00 1016.27 1017.47 1018.44 1019.10 1019.42 1019.42 1019.21 1018.91 1018.67 1018.59 1018.72 1019.06 1019.57 1020.14 1020.68 1021.07 1021.27 1021.26 1021.06 1020.74 1020.37 1020.04 1019.79 1019.64 1019.57 1019.52 1019.44 1019.27 1018.97 1018.54 1018.01 1017.44 1016.89 1016.41
1013.53 1013.22 1012.82 1012.46 1012.27 1012.38 1012.85 1013.69 1014.83 1016.14 1017.46 1018.63 1019.51 1020.03 1020.17 1020.00 1019.64 1019.23 1018.91 1018.79 1018.91 1019.28 1019.82 1020.44 1021.01 1021.45 1021.69 1021.71 1021.55 1021.27 1020.95 1020.66 1020.45 1020.33 1020.27 1020.23 1020.14 1019.95 1019.62 1019.16 1018.60 1017.99 1017.40 1016.88
1013.90 1013.57 1013.19 1012.91 1012.85 1013.11 1013.74 1014.72 1015.96 1017.31 1018.61 1019.69 1020.43 1020.77 1020.74 1020.39 1019.88 1019.36 1018.97 1018.81 1018.94 1019.33 1019.91 1020.58 1021.22 1021.72 1022.02 1022.12 1022.02 1021.80 1021.53 1021.28 1021.09 1020.97 1020.89 1020.82 1020.69 1020.46 1020.10 1019.62 1019.04 1018.41 1017.81 1017.27
1014.37 1014.05 1013.73 1013.54 1013.59 1013.98 1014.71 1015.76 1017.02 1018.33 1019.53 1020.47 1021.05 1021.22 1021.01 1020.52 1019.90 1019.30 1018.87 1018.72 1018.86 1019.29 1019.93 1020.67 1021.38 1021.96 1022.35 1022.52 1022.50 1022.35 1022.12 1021.89 1021.69 1021.54 1021.42 1021.29 1021.10 1020.82 1020.42 1019.91 1019.33 1018.71 1018.11 1017.59
1014.85 1014.58 1014.33 1014.23 1014.37 1014.83 1015.60 1016.65 1017.84 1019.05 1020.10 1020.87 1021.27 1021.28 1020.95 1020.37 1019.70 1019.10 1018.69 1018.58 1018.78 1019.28 1019.99 1020.79 1021.58 1022.23 1022.70 1022.95 1023.00 1022.90 1022.70 1022.47 1022.25 1022.04 1021.85 1021.65 1021.39 1021.05 1020.61 1020.09 1019.51 1018.92 1018.35 1017.85
1015.27 1015.06 1014.90 1014.87 1015.07 1015.55 1016.30 1017.26 1018.33 1019.37 1020.24 1020.84 1021.09 1020.99 1020.59 1020.00 1019.37 1018.83 1018.51 1018.49 1018.79 1019.36 1020.15 1021.02 1021.86 1022.58 1023.10 1023.41 1023.51 1023.44 1023.25 1023.00 1022.74 1022.47 1022.21 1021.92 1021.59 1021.20 1020.74 1020.22 1019.67 1019.11 1018.58 1018.12
1015.60 1015.46 1015.37 1015.40 1015.62 1016.08 1016.75 1017.58 1018.48 1019.32 1020.01 1020.45 1020.58 1020.43 1020.05 1019.53 1019.01 1018.61 1018.44 1018.55 1018.96 1019.62 1020.46 1021.37 1022.24 1022.98 1023.53 1023.86 1023.98 1023.92 1023.73 1023.46 1023.15 1022.83 1022.50 1022.15 1021.77 1021.35 1020.88 1020.38 1019.87 1019.36 1018.88 1018.46
1015.85 1015.79 1015.76 1015.84 1016.06 1016.45 1017.00 1017.67 1018.38 1019.03 1019.54 1019.84 1019.92 1019.78 1019.47 1019.09 1018.75 1018.54 1018.54 1018.81 1019.33 1020.06 1020.92 1021.83 1022.69 1023.40 1023.93 1024.25 1024.36 1024.29 1024.09 1023.80 1023.47 1023.11 1022.74 1022.36 1021.96 1021.53 1021.08 1020.62 1020.16 1019.70 1019.29 1018.91
1016.09 1016.11 1016.14 1016.24 1016.44 1016.75 1017.17 1017.67 1018.18 1018.64 1019.00 1019.21 1019.26 1019.18 1019.00 1018.80 1018.66 1018.67 1018.86 1019.26 1019.86 1020.63 1021.48 1022.34 1023.13 1023.78 1024.25 1024.52 1024.61 1024.53 1024.32 1024.04 1023.70 1023.33 1022.95 1022.57 1022.18 1021.78 1021.37 1020.96 1020.56 1020.17 1019.80 1019.47
1016.40 1016.48 1016.57 1016.68 1016.85 1017.07 1017.36 1017.69 1018.02 1018.32 1018.55 1018.70 1018.77 1018.77 1018.74 1018.73 1018.81 1019.00 1019.36 1019.87 1020.52 1021.27 1022.07 1022.84 1023.52 1024.07 1024.45 1024.67 1024.72 1024.63 1024.43 1024.16 1023.84 1023.51 1023.16 1022.80 1022.45 1022.09 1021.74 1021.39 1021.05 1020.72 1020.41 1020.11
1016.81 1016.95 1017.08 1017.20 1017.33 1017.48 1017.64 1017.82 1017.99 1018.16 1018.30 1018.42 1018.51 1018.61 1018.72 1018.90 1019.15 1019.51 1019.99 1020.56 1021.22 1021.92 1022.61 1023.26 1023.81 1024.24 1024.53 1024.68 1024.70 1024.61 1024.44 1024.21 1023.94 1023.65 1023.36 1023.05 1022.75 1022.45 1022.15 1021.86 1021.58 1021.31 1021.04 1020.78
1017.32 1017.51 1017.67 1017.80 1017.89 1017.97 1018.02 1018.08 1018.13 1018.19 1018.26 1018.36 1018.50 1018.68 1018.92 1019.24 1019.64 1020.12 1020.67 1021.26 1021.88 1022.50 1023.07 1023.58 1023.99 1024.30 1024.50 1024.60 1024.61 1024.54 1024.41 1024.23 1024.03 1023.80 1023.57 1023.32 1023.08 1022.83 1022.58 1022.34 1022.10 1021.87 1021.64 1021.41
1017.88 1018.11 1018.29 1018.41 1018.47 1018.48 1018.45 1018.41 1018.37 1018.36 1018.39 1018.49 1018.66 1018.92 1019.27 1019.69 1020.19 1020.73 1021.31 1021.89 1022.45 1022.96 1023.42 1023.80 1024.09 1024.30 1024.43 1024.50 1024.50 1024.46 1024.38 1024.27 1024.13 1023.97 1023.80 1023.60 1023.40 1023.19 1022.98 1022.77 1022.57 1022.37 1022.17 1021.97
1018.41 1018.66 1018.84 1018.94 1018.97 1018.92 1018.83 1018.72 1018.62 1018.57 1018.58 1018.69 1018.91 1019.23 1019.64 1020.14 1020.70 1021.28 1021.85 1022.40 1022.89 1023.31 1023.66 1023.93 1024.14 1024.28 1024.37 1024.42 1024.44 1024.43 1024.41 1024.35 1024.27 1024.17 1024.04 1023.88 1023.71 1023.52 1023.33 1023.15 1022.97 1022.79 1022.62 1022.44
1018.83 1019.06 1019.22 1019.29 1019.28 1019.20 1019.07 1018.92 1018.79 1018.72 1018.75 1018.88 1019.13 1019.50 1019.98 1020.53 1021.11 1021.71 1022.27 1022.78 1023.21 1023.57 1023.84 1024.04 1024.18 1024.28 1024.35 1024.41 1024.45 1024.48 1024.49 1024.49 1024.45 1024.38 1024.27 1024.14 1023.98 1023.81 1023.63 1023.46 1023.30 1023.14 1022.99 1022.85
1019.07 1019.26 1019.38 1019.41 1019.36 1019.25 1019.09 1018.93 1018.81 1018.75 1018.81 1018.98 1019.28 1019.71 1020.23 1020.81 1021.42 1022.02 1022.57 1023.05 1023.45 1023.76 1023.98 1024.14 1024.26 1024.34 1024.41 1024.48 1024.54 1024.59 1024.63 1024.65 1024.63 1024.58 1024.48 1024.36 1024.21 1024.05 1023.89 1023.73 1023.59 1023.46 1023.34 1023.23
1019.14 1019.26 1019.32 1019.30 1019.21 1019.07 1018.90 1018.75 1018.66 1018.65 1018.75 1018.98 1019.34 1019.82 1020.39 1021.01 1021.64 1022.24 1022.79 1023.26 1023.63 1023.92 1024.13 1024.27 1024.38 1024.46 1024.53 1024.60 1024.67 1024.73 1024.78 1024.80 1024.79 1024.74 1024.65 1024.53 1024.40 1024.26 1024.12 1023.99 1023.88 1023.79 1023.71 1023.64
1019.06 1019.09 1019.07 1018.98 1018.85 1018.69 1018.54 1018.42 1018.37 1018.43 1018.60 1018.91 1019.34 1019.87 1020.49 1021.14 1021.79 1022.41 1022.96 1023.43 1023.80 1024.08 1024.29 1024.43 1024.53 1024.61 1024.68 1024.74 1024.80 1024.86 1024.89 1024.90 1024.88 1024.83 1024.76 1024.66 1024.55 1024.44 1024.35 1024.27 1024.21 1024.16 1024.13 1024.09
1018.86 1018.80 1018.69 1018.54 1018.37 1018.21 1018.07 1018.00 1018.01 1018.15 1018.40 1018.79 1019.29 1019.89 1020.55 1021.24 1021.92 1022.55 1023.11 1023.58 1023.95 1024.24 1024.44 1024.59 1024.69 1024.76 1024.81 1024.86 1024.90 1024.93 1024.94 1024.94 1024.91 1024.86 1024.80 1024.74 1024.67 1024.62 1024.58 1024.57 1024.57 1024.58 1024.59 1024.59
1018.61 1018.44 1018.25 1018.04 1017.84 1017.67 1017.57 1017.55 1017.64 1017.85 1018.19 1018.66 1019.23 1019.89 1020.60 1021.32 1022.02 1022.66 1023.23 1023.70 1024.08 1024.37 1024.58 1024.72 1024.81 1024.86 1024.90 1024.92 1024.93 1024.93 1024.92 1024.90 1024.87 1024.84 1024.81 1024.79 1024.78 1024.79 1024.83 1024.88 1024.94 1025.01 1025.06 1025.10
1018.31 1018.05 1017.78 1017.53 1017.31 1017.15 1017.07 1017.11 1017.27 1017.56 1017.98 1018.52 1019.16 1019.87 1020.61 1021.36 1022.07 1022.73 1023.30 1023.78 1024.16 1024.45 1024.65 1024.78 1024.86 1024.90 1024.91 1024.90 1024.89 1024.86 1024.83 1024.80 1024.79 1024.78 1024.79 1024.82 1024.88 1024.96 1025.07 1025.19 1025.30 1025.41 1025.49 1025.54
1017.96 1017.63 1017.31 1017.02 1016.79 1016.65 1016.61 1016.69 1016.92 1017.27 1017.76 1018.36 1019.05 1019.79 1020.57 1021.33 1022.05 1022.71 1023.28 1023.76 1024.14 1024.42 1024.63 1024.75 1024.82 1024.85 1024.85 1024.82 1024.78 1024.75 1024.71 1024.69 1024.69 1024.72 1024.77 1024.86 1024.98 1025.12 1025.28 1025.44 1025.59 1025.72 1025.82 1025.86
Thickness
5728 5712 5705 5713 5720 5720 5720 5717 5716 5728 5743 5734 5723 5718 5719 5722 5722 5717 5713 5711 5708 5704 5705 5705 5702 5699 5697 5695 5695 5694 5693 5692 5693 5694 5693 5692 5689 5688 5687 5687 5687 5688 5689 5689
5707 5704 5721 5730 5731 5727 5722 5715 5716 5728 5741 5732 5718 5712 5714 5716 5715 5714 5709 5706 5703 5699 5699 5697 5694 5692 5689 5687 5687 5685 5685 5685 5686 5686 5686 5685 5683 5681 5680 5679 5679 5679 5680 5681
5701 5716 5734 5731 5725 5723 5721 5717 5720 5722 5728 5728 5716 5697 5700 5706 5708 5707 5705 5702 5699 5696 5692 5690 5687 5684 5681 5679 5678 5678 5677 5677 5677 5678 5678 5677 5675 5674 5672 5670 5669 5670 5671 5672
5710 5729 5733 5729 5728 5728 5714 5732 5732 5726 5710 5694 5704 5676 5684 5693 5692 5694 5694 5693 5691 5690 5686 5682 5679 5675 5673 5671 5670 5669 5668 5667 5668 5668 5667 5666 5664 5662 5661 5660 5660 5660 5661 5662
5712 5728 5728 5725 5732 5736 5728 5737 5730 5722 5704 5687 5688 5676 5674 5684 5681 5684 5687 5686 5684 5681 5679 5675 5671 5668 5666 5664 5662 5660 5659 5659 5658 5658 5657 5656 5654 5652 5651 5651 5650 5650 5650 5651
5722 5736 5737 5735 5743 5743 5737 5724 5714 5701 5687 5669 5677 5673 5666 5674 5682 5683 5683 5681 5677 5673 5671 5667 5664 5661 5658 5656 5653 5650 5649 5648 5648 5647 5646 5644 5643 5642 5641 5640 5639 5639 5640 5641
5709 5724 5736 5743 5730 5730 5723 5696 5674 5668 5657 5659 5677 5670 5667 5682 5688 5685 5679 5673 5669 5666 5663 5659 5656 5653 5650 5647 5643 5640 5639 5638 5637 5636 5634 5633 5632 5631 5630 5629 5629 5629 5629 5630
5690 5694 5722 5732 5726 5715 5713 5698 5669 5657 5653 5655 5669 5663 5670 5683 5685 5683 5677 5669 5664 5659 5655 5651 5647 5645 5642 5638 5634 5632 5630 5628 5627 5625 5623 5622 5622 5621 5619 5619 5619 5619 5619 5620
5689 5693 5721 5730 5733 5724 5706 5694 5691 5669 5661 5652 5655 5662 5671 5677 5674 5671 5666 5661 5656 5652 5648 5643 5639 5637 5633 5628 5625 5622 5620 5618 5616 5614 5612 5611 5611 5609 5608 5608 5609 5610 5610 5611
5701 5692 5707 5721 5724 5720 5712 5700 5678 5664 5649 5643 5650 5654 5658 5666 5664 5664 5659 5655 5651 5646 5642 5637 5633 5629 5624 5619 5616 5613 5610 5607 5605 5603 5602 5601 5600 5599 5599 5599 5599 5600 5600 5601
5701 5686 5690 5699 5696 5694 5698 5692 5678 5662 5657 5642 5636 5647 5675 5672 5669 5663 5658 5653 5648 5641 5636 5630 5624 5620 5615 5610 5607 5603 5600 5597 5595 5593 5591 5590 5589 5589 5589 5590 5589 5590 5590 5590
5695 5679 5672 5684 5700 5706 5697 5688 5677 5660 5655 5651 5642 5649 5679 5676 5670 5664 5657 5650 5643 5637 5631 5624 5618 5612 5607 5602 5599 5595 5591 5589 5586 5584 5582 5581 5580 5579 5579 5579 5579 5579 5579 5579
5691 5672 5657 5662 5674 5687 5687 5687 5681 5668 5655 5648 5642 5649 5668 5667 5662 5658 5651 5643 5637 5630 5624 5617 5612 5606 5600 5595 5591 5587 5584 5581 5579 5577 5574 5572 5571 5570 5569 5569 5569 5569 5568 5568
5694 5668 5657 5651 5657 5671 5675 5681 5682 5670 5651 5650 5653 5654 5656 5657 5653 5648 5643 5637 5630 5624 5617 5610 5603 5598 5593 5589 5585 5581 5578 5575 5572 5570 5567 5565 5562 5561 5560 5560 5560 5559 5558 5558
5684 5666 5669 5669 5675 5676 5675 5677 5679 5674 5668 5656 5657 5655 5655 5654 5650 5644 5638 5632 5625 5618 5612 5605 5597 5591 5586 5582 5579 5576 5572 5569 5566 5563 5560 5557 5555 5554 5552 5552 5551 5550 5549 5547
5674 5664 5663 5662 5673 5674 5670 5672 5676 5673 5670 5662 5657 5651 5655 5650 5644 5638 5632 5627 5620 5613 5607 5600 5593 5587 5582 5578 5573 5570 5566 5563 5559 5556 5553 5551 5548 5546 5545 5544 5542 5541 5539 5538
5665 5659 5651 5648 5662 5665 5651 5660 5664 5663 5664 5661 5650 5648 5646 5640 5637 5632 5627 5623 5616 5609 5602 5595 5588 5582 5576 5572 5568 5564 5560 5557 5553 5550 5548 5545 5542 5540 5538 5537 5535 5533 5531 5530
5664 5655 5644 5642 5648 5638 5649 5665 5665 5659 5656 5658 5653 5647 5643 5637 5631 5627 5623 5617 5611 5604 5597 5589 5582 5576 5570 5566 5562 5558 5555 5551 5548 5545 5542 5539 5536 5534 5532 5530 5528 5526 5525 5524
5669 5658 5645 5636 5634 5639 5651 5660 5659 5652 5645 5651 5646 5641 5635 5631 5623 5617 5615 5612 5605 5598 5590 5583 5577 5571 5565 5561 5557 5553 5549 5546 5543 5539 5536 5534 5532 5529 5527 5525 5523 5522 5520 5519
5665 5658 5644 5637 5633 5630 5644 5661 5666 5654 5636 5646 5643 5637 5631 5626 5614 5610 5609 5604 5597 5591 5584 5577 5571 5566 5560 5556 5552 5548 5543 5540 5537 5535 5533 5530 5528 5526 5523 5521 5520 5518 5517 5515
5651 5646 5640 5634 5631 5636 5653 5663 5663 5639 5636 5645 5641 5635 5630 5624 5619 5613 5605 5597 5590 5584 5578 5572 5567 5561 5556 5551 5547 5543 5539 5536 5534 5532 5530 5527 5525 5522 5520 5518 5517 5516 5514 5512
5647 5641 5637 5633 5628 5632 5657 5659 5649 5643 5648 5645 5639 5633 5627 5621 5616 5608 5600 5592 5584 5578 5572 5567 5561 5555 5551 5548 5543 5539 5536 5534 5532 5529 5526 5524 5522 5520 5519 5516 5515 5514 5512 5510
5650 5647 5640 5637 5635 5647 5656 5655 5655 5651 5645 5641 5635 5629 5624 5616 5609 5602 5594 5586 5580 5574 5568 5563 5557 5552 5547 5544 5541 5537 5534 5532 5529 5526 5523 5521 5520 5518 5516 5514 5513 5512 5510 5509
5654 5657 5647 5642 5645 5650 5652 5653 5652 5650 5645 5640 5635 5627 5621 5613 5605 5597 5590 5582 5576 5570 5564 5559 5554 5549 5545 5542 5539 5536 5534 5531 5528 5524 5521 5520 5517 5515 5514 5513 5512 5511 5509 5508
5653 5653 5645 5642 5645 5647 5648 5648 5647 5645 5642 5636 5630 5624 5618 5610 5601 5594 5586 5579 5573 5568 5562 5557 5553 5548 5544 5541 5538 5536 5533 5530 5527 5524 5522 5519 5517 5515 5513 5512 5510 5510 5510 5510
5651 5648 5641 5638 5645 5643 5643 5647 5646 5641 5636 5631 5625 5618 5613 5607 5600 5592 5585 5578 5572 5567 5562 5557 5552 5548 5544 5541 5538 5536 5534 5531 5527 5524 5522 5519 5517 5515 5514 5512 5511 5512 5512 5513